Weather History for PAHL - December, 2013

Change the Weather History Date:

Friday, December 13, 2013

  Actual Average Record
Temperature  
Mean Temperature -10 °F -  
Max Temperature 1 °F - - ()
Min Temperature -20 °F - - ()
Degree Days  
Heating Degree Days 74    
Moisture  
Dew Point -15 °F    
Average Humidity 67    
Maximum Humidity 100    
Minimum Humidity 54    
Precipitation  
Precipitation 0.00 in - - ()
Sea Level Pressure  
Sea Level Pressure 29.84 in    
Wind  
Wind Speed 10 mph (NNE)    
Max Wind Speed 18 mph    
Max Gust Speed 26 mph    
Visibility 10 miles    
Events      
T = Trace of Precipitation, MM = Missing Value Source: NWS Daily Summary

Daily Weather History Graph

Daily Weather History Graph

Search for Another Location

Airport or City:

Trip Planner

Search our weather history database for the weather conditions in past years. The results will help you decide how hot, cold, wet, or windy it might be!

Date:

Astronomy

Dec. 13, 2013 Rise Set
Actual Time 11:42 AM AKST 2:57 PM AKST
Civil Twilight 10:08 AM AKST 4:30 PM AKST
Nautical Twilight 8:53 AM AKST 5:45 PM AKST
Astronomical Twilight 7:50 AM AKST 6:49 PM AKST
Moon 2:11 PM AKST (12/13) 6:45 AM AKST (12/13)
Length of Visible Light 6h 21m
Length of Day
3h 15m
Waxing Gibbous, 89% of the Moon is Illuminated
Dec 13
Waxing Gibbous
Dec 17
Full
Dec 25
Last Quarter
Jan 1
New
Jan 7
First Quarter

Hourly Weather History & Observations

Time (AKST) Temp. Windchill Dew Point Humidity Pressure Visibility Wind Dir Wind Speed Gust Speed Precip Events Conditions
12:16 AM 1.4 °F -17.6 °F -9.4 °F 61% 30.04 in 10.0 mi NE 15.0 mph 21.9 mph N/A   Clear
12:36 AM 1.4 °F -17.6 °F -9.4 °F 61% 30.04 in 10.0 mi NE 15.0 mph 20.7 mph N/A   Clear
12:56 AM 1.4 °F -19.4 °F -9.4 °F 61% 30.03 in 10.0 mi NE 18.4 mph 24.2 mph N/A   Clear
1:16 AM 1.4 °F -18.2 °F -11.2 °F 56% 30.02 in 10.0 mi NE 16.1 mph 24.2 mph N/A   Clear
1:36 AM 1.4 °F -15.3 °F -9.4 °F 61% 30.03 in 10.0 mi NE 11.5 mph - N/A   Clear
1:56 AM 1.4 °F -14.5 °F -11.2 °F 56% 30.02 in 10.0 mi NE 10.4 mph - N/A   Clear
2:16 AM 1.4 °F -16.9 °F -9.4 °F 61% 30.02 in 10.0 mi NE 13.8 mph - N/A   Clear
2:36 AM 1.4 °F -18.8 °F -11.2 °F 56% 30.00 in 10.0 mi NE 17.3 mph 24.2 mph N/A   Clear
2:56 AM 1.4 °F -17.6 °F -9.4 °F 61% 30.00 in 10.0 mi ENE 15.0 mph 26.5 mph N/A   Clear
3:16 AM 1.4 °F -17.6 °F -11.2 °F 56% 30.00 in 10.0 mi NE 15.0 mph 18.4 mph N/A   Clear
3:36 AM 1.4 °F -14.5 °F -11.2 °F 56% 30.01 in 10.0 mi NE 10.4 mph 19.6 mph N/A   Clear
3:56 AM -0.4 °F -18.4 °F -11.2 °F 60% 30.00 in 10.0 mi ENE 12.7 mph 18.4 mph N/A   Clear
4:16 AM -0.4 °F -17.6 °F -11.2 °F 60% 29.99 in 10.0 mi NE 11.5 mph - N/A   Clear
4:36 AM -0.4 °F -17.6 °F -11.2 °F 60% 29.99 in 10.0 mi ENE 11.5 mph 18.4 mph N/A   Clear
4:56 AM -0.4 °F -12.0 °F -11.2 °F 60% 29.99 in 10.0 mi ENE 5.8 mph - N/A   Clear
5:16 AM -2.2 °F -15.6 °F -13.0 °F 60% 29.98 in 10.0 mi East 6.9 mph - N/A   Clear
5:36 AM -2.2 °F -15.6 °F -13.0 °F 60% 29.97 in 10.0 mi NE 6.9 mph - N/A   Clear
5:56 AM -2.2 °F -12.5 °F -11.2 °F 66% 29.97 in 10.0 mi SSE 4.6 mph - N/A   Clear
6:16 AM -4.0 °F -16.3 °F -13.0 °F 65% 29.97 in 10.0 mi NNE 5.8 mph - N/A   Clear
6:36 AM -4.0 °F -14.6 °F -11.2 °F 71% 29.96 in 10.0 mi NE 4.6 mph - N/A   Clear
6:56 AM -5.8 °F -21.2 °F -13.0 °F 71% 29.95 in 10.0 mi NE 8.1 mph - N/A   Clear
7:16 AM -4.0 °F -23.0 °F -11.2 °F 71% 29.93 in 10.0 mi NE 12.7 mph - N/A   Clear
7:36 AM -2.2 °F -18.0 °F -11.2 °F 66% 29.93 in 10.0 mi NE 9.2 mph - N/A   Clear
7:56 AM -4.0 °F -16.3 °F -13.0 °F 65% 29.93 in 10.0 mi NNE 5.8 mph - N/A   Clear
8:16 AM -4.0 °F -12.4 °F -13.0 °F 65% 29.93 in 10.0 mi NE 3.5 mph - N/A   Clear
8:36 AM -4.0 °F - -14.8 °F 60% 29.92 in 10.0 mi Calm Calm - N/A   Clear
8:56 AM -5.8 °F -21.2 °F -16.6 °F 60% 29.92 in 10.0 mi NE 8.1 mph - N/A   Clear
9:16 AM -5.8 °F -19.9 °F -11.2 °F 77% 29.91 in 10.0 mi North 6.9 mph - N/A   Clear
9:36 AM -4.0 °F -17.8 °F -13.0 °F 65% 29.90 in 10.0 mi NNE 6.9 mph - N/A   Clear
9:56 AM -4.0 °F -23.0 °F -13.0 °F 65% 29.90 in 10.0 mi NE 12.7 mph 17.3 mph N/A   Clear
10:16 AM -4.0 °F -19.0 °F -13.0 °F 65% 29.89 in 10.0 mi NE 8.1 mph - N/A   Clear
10:36 AM -4.0 °F -19.0 °F -13.0 °F 65% 29.89 in 10.0 mi NE 8.1 mph - N/A   Clear
10:56 AM -4.0 °F - -16.6 °F 55% 29.89 in 10.0 mi Calm Calm - N/A   Clear
11:16 AM -4.0 °F -16.3 °F -11.2 °F 71% 29.89 in 10.0 mi ENE 5.8 mph - N/A   Clear
11:36 AM -4.0 °F -21.2 °F -13.0 °F 65% 29.88 in 10.0 mi NNE 10.4 mph - N/A   Clear
11:56 AM -4.0 °F -19.0 °F -14.8 °F 60% 29.88 in 10.0 mi ENE 8.1 mph 16.1 mph N/A   Clear
12:16 PM -4.0 °F -19.0 °F -11.2 °F 71% 29.87 in 10.0 mi ENE 8.1 mph - N/A   Clear
12:36 PM -5.8 °F -19.9 °F -14.8 °F 65% 29.87 in 10.0 mi East 6.9 mph - N/A   Clear
12:56 PM -5.8 °F -21.2 °F -14.8 °F 65% 29.86 in 10.0 mi ENE 8.1 mph - N/A   Clear
1:16 PM -5.8 °F -21.2 °F -14.8 °F 65% 29.85 in 10.0 mi ENE 8.1 mph - N/A   Clear
1:36 PM -5.8 °F -24.4 °F -13.0 °F 71% 29.83 in 10.0 mi NE 11.5 mph - N/A   Clear
1:56 PM -4.0 °F -20.2 °F -13.0 °F 65% 29.82 in 10.0 mi NE 9.2 mph - N/A   Clear
2:16 PM -4.0 °F -23.0 °F -14.8 °F 60% 29.81 in 10.0 mi NE 12.7 mph 16.1 mph N/A   Clear
2:36 PM -4.0 °F -22.1 °F -13.0 °F 65% 29.80 in 10.0 mi NE 11.5 mph - N/A   Clear
2:56 PM -5.8 °F -22.4 °F -14.8 °F 65% 29.79 in 10.0 mi NE 9.2 mph - N/A   Clear
3:16 PM -5.8 °F -19.9 °F -14.8 °F 65% 29.78 in 10.0 mi NE 6.9 mph - N/A   Clear
3:36 PM -5.8 °F -21.2 °F -13.0 °F 71% 29.78 in 10.0 mi NNE 8.1 mph - N/A   Clear
3:56 PM -5.8 °F -19.9 °F -14.8 °F 65% 29.77 in 10.0 mi NNE 6.9 mph - N/A   Clear
4:16 PM -5.8 °F -21.2 °F -14.8 °F 65% 29.75 in 10.0 mi NNE 8.1 mph - N/A   Clear
4:36 PM -5.8 °F -19.9 °F -14.8 °F 65% 29.74 in 10.0 mi NNE 6.9 mph - N/A   Clear
4:56 PM -5.8 °F -19.9 °F -14.8 °F 65% 29.74 in 10.0 mi North 6.9 mph - N/A   Clear
5:16 PM -5.8 °F -21.2 °F -14.8 °F 65% 29.73 in 10.0 mi NNE 8.1 mph - N/A   Clear
5:36 PM -5.8 °F -21.2 °F -14.8 °F 65% 29.72 in 10.0 mi NNE 8.1 mph - N/A   Clear
5:56 PM -5.8 °F -21.2 °F -14.8 °F 65% 29.71 in 10.0 mi NNE 8.1 mph - N/A   Clear
6:16 PM -4.0 °F -17.8 °F -13.0 °F 65% 29.70 in 10.0 mi NNE 6.9 mph - N/A   Clear
6:36 PM -4.0 °F -17.8 °F -16.6 °F 55% 29.70 in 10.0 mi NNE 6.9 mph - N/A   Clear
6:56 PM -7.6 °F -20.6 °F -20.2 °F 54% 29.69 in 10.0 mi NNW 5.8 mph - N/A   Clear
7:16 PM -9.4 °F -22.7 °F -18.4 °F 65% 29.68 in 10.0 mi WNW 5.8 mph - N/A   Clear
7:36 PM -11.2 °F -23.0 °F -20.2 °F 64% 29.67 in 10.0 mi WNW 4.6 mph - N/A   Clear
7:56 PM -14.8 °F -29.1 °F -25.6 °F 58% 29.66 in 10.0 mi NW 5.8 mph - N/A   Clear
8:16 PM -16.6 °F -32.9 °F -20.2 °F 84% 29.66 in 10.0 mi NW 6.9 mph - N/A   Clear
8:36 PM -18.4 °F -35.1 °F -22.0 °F 84% 29.66 in 10.0 mi NW 6.9 mph - N/A   Clear
8:56 PM -18.4 °F -31.4 °F -25.6 °F 70% 29.66 in 10.0 mi WNW 4.6 mph - N/A   Clear
9:16 PM -20.2 °F -35.5 °F -20.2 °F 100% 29.64 in 10.0 mi WNW 5.8 mph - N/A   Clear
9:36 PM -20.2 °F -35.5 °F -25.6 °F 76% 29.64 in 10.0 mi WNW 5.8 mph - N/A   Clear
9:56 PM -20.2 °F -35.5 °F -25.6 °F 76% 29.64 in 10.0 mi WNW 5.8 mph - N/A   Clear
10:16 PM -20.2 °F -30.9 °F -22.0 °F 91% 29.63 in 10.0 mi West 3.5 mph - N/A   Clear
10:36 PM -20.2 °F -33.5 °F -23.8 °F 83% 29.62 in 10.0 mi NW 4.6 mph - N/A   Clear
10:56 PM -20.2 °F -35.5 °F -25.6 °F 76% 29.61 in 10.0 mi WNW 5.8 mph - N/A   Clear
11:16 PM -20.2 °F -33.5 °F -22.0 °F 91% 29.61 in 10.0 mi WNW 4.6 mph - N/A   Clear
11:36 PM -20.2 °F - -23.8 °F 83% 29.61 in 10.0 mi Calm Calm - N/A   Clear
11:56 PM -20.2 °F -30.9 °F -25.6 °F 76% 29.60 in 10.0 mi West 3.5 mph - N/A   Clear